Wakefield, VA

3:24 PM EDT on July 22, 2017 (GMT -0400)
Wakefield Municipal

Weather History for KAKQ - February, 2013

Change the Weather History Date:

Tuesday, February 5, 2013

  Actual Average (KJGG) Record (KJGG)
Temperature  
Mean Temperature 47 °F -  
Max Temperature 57 °F 48 °F 77 °F (2008)
Min Temperature 37 °F 27 °F 12 °F (1965)
Degree Days  
Heating Degree Days 18    
Moisture  
Dew Point 31 °F    
Average Humidity 58    
Maximum Humidity 83    
Minimum Humidity 39    
Precipitation  
Precipitation 0.00 in - - ()
Sea Level Pressure  
Sea Level Pressure 29.93 in    
Wind  
Wind Speed 5 mph (SW)    
Max Wind Speed 9 mph    
Max Gust Speed -    
Visibility 10 miles    
Events      
Averages and records for this station are not official NWS values.
T = Trace of Precipitation, MM = Missing Value Source: NWS Daily Summary

Daily Weather History Graph

Daily Weather History Graph

Search for Another Location

Airport or City:

Trip Planner

Search our weather history database for the weather conditions in past years. The results will help you decide how hot, cold, wet, or windy it might be!

Date:

Astronomy

Feb. 05, 2013 Rise Set
Actual Time 7:06 AM EST 5:37 PM EST
Civil Twilight 6:39 AM EST 6:04 PM EST
Nautical Twilight 6:08 AM EST 6:35 PM EST
Astronomical Twilight 5:38 AM EST 7:06 PM EST
Moon 2:43 AM EST (2/5) 12:55 PM EST (2/5)
Length of Visible Light 11h 25m
Length of Day
10h 31m
Waning Crescent, 27% of the Moon is Illuminated
Feb 5
Waning Crescent
Feb 10
New
Feb 17
First Quarter
Feb 25
Full
Mar 4
Last Quarter

Hourly Weather History & Observations

Time (EST) Temp. Windchill Dew Point Humidity Pressure Visibility Wind Dir Wind Speed Gust Speed Precip Events Conditions
12:54 AM 43.0 °F 38.8 °F 25.0 °F 49% 29.97 in 10.0 mi SW 6.9 mph - N/A   Overcast
1:54 AM 42.1 °F 36.6 °F 25.0 °F 51% 29.96 in 10.0 mi SW 9.2 mph - N/A   Overcast
2:54 AM 42.1 °F 38.4 °F 26.1 °F 53% 29.95 in 10.0 mi SSW 5.8 mph - N/A   Overcast
3:54 AM 42.1 °F 37.7 °F 27.0 °F 55% 29.94 in 10.0 mi SSW 6.9 mph - N/A   Overcast
4:54 AM 41.0 °F 39.0 °F 28.0 °F 60% 29.93 in 10.0 mi SW 3.5 mph - N/A   Overcast
5:54 AM 41.0 °F 39.0 °F 28.0 °F 60% 29.93 in 10.0 mi SSW 3.5 mph - N/A   Overcast
6:54 AM 42.1 °F 40.2 °F 28.9 °F 60% 29.94 in 10.0 mi SW 3.5 mph - N/A   Overcast
7:54 AM 42.1 °F 38.4 °F 28.9 °F 60% 29.96 in 10.0 mi SW 5.8 mph - N/A   Scattered Clouds
8:54 AM 43.0 °F 39.5 °F 28.9 °F 58% 29.96 in 10.0 mi SW 5.8 mph - N/A   Mostly Cloudy
9:54 AM 45.0 °F 41.2 °F 30.0 °F 56% 29.96 in 10.0 mi SW 6.9 mph - N/A   Mostly Cloudy
10:54 AM 46.9 °F - 30.9 °F 54% 29.96 in 10.0 mi WSW 8.1 mph - N/A   Overcast
11:54 AM 48.9 °F - 30.9 °F 50% 29.95 in 10.0 mi WSW 6.9 mph - N/A   Overcast
12:54 PM 50.0 °F - 30.9 °F 48% 29.92 in 10.0 mi Variable 5.8 mph - N/A   Overcast
1:54 PM 54.0 °F - 32.0 °F 43% 29.89 in 10.0 mi WSW 8.1 mph - N/A   Overcast
2:54 PM 57.0 °F - 32.0 °F 39% 29.87 in 10.0 mi West 4.6 mph - N/A   Scattered Clouds
3:54 PM 57.0 °F - 33.1 °F 40% 29.87 in 10.0 mi West 6.9 mph - N/A   Scattered Clouds
4:54 PM 55.0 °F - 34.0 °F 45% 29.88 in 10.0 mi West 5.8 mph - N/A   Partly Cloudy
5:54 PM 50.0 °F - 35.1 °F 57% 29.89 in 10.0 mi Calm Calm - N/A   Clear
6:54 PM 45.0 °F - 36.0 °F 71% 29.91 in 10.0 mi Calm Calm - N/A   Clear
7:54 PM 46.0 °F - 36.0 °F 68% 29.91 in 10.0 mi Calm Calm - N/A   Clear
8:54 PM 43.0 °F - 34.0 °F 71% 29.93 in 10.0 mi Calm Calm - N/A   Clear
9:54 PM 39.9 °F - 33.1 °F 77% 29.94 in 10.0 mi Calm Calm - N/A   Clear
10:54 PM 37.9 °F - 33.1 °F 83% 29.94 in 10.0 mi Calm Calm - N/A   Clear
11:54 PM 41.0 °F - 35.1 °F 79% 29.96 in 10.0 mi Calm Calm - N/A   Mostly Cloudy